Weather Roundup
Issued by NWS Corpus Christi, TX

Home | Current Version | Previous Version | Text Only | Print | Product List | Glossary On
Versions: 1 2 3 4 5 6 7 8 9 10 11 12 13 14 15 16 17 18 19 20 21 22 23 24 25 26 27 28 29 30 31 32 33 34 35 36 37 38 39 40 41 42 43 44 45 46 47 48 49 50
000
ASUS44 KCRP 011310
HRRCRP

SOUTH TEXAS REGIONAL WEATHER ROUNDUP
NATIONAL WEATHER SERVICE CORPUS CHRISTI TX
800 AM CDT SAT OCT 01 2016


TXZ229>244-011400-
...CORPUS CHRISTI AREA OBSERVATIONS...

CITY           SKY/WX    TMP DP  RH WIND       PRES   REMARKS
CORPUS CHRISTI CLOUDY    67  63  87 N7        30.06R
NAS CORPUS CHR CLOUDY    74  67  78 NE12      30.05R
ROCKPORT       PTCLDY    71  64  78 NE7       30.06R
KINGSVILLE NAS CLOUDY    63  62  97 N6        30.06R
ALICE          CLOUDY    63  60  90 N6        30.06R
FALFURRIAS     CLOUDY    64  58  80 N3        30.06R
$$

...VICTORIA AREA OBSERVATIONS...

CITY           SKY/WX    TMP DP  RH WIND       PRES   REMARKS
VICTORIA       MOCLDY    57  56  96 N3        30.08S
BEEVILLE       FAIR      61  60  97 N5        30.08R
PLEASANTON     CLOUDY    58  55  90 CALM      30.11R
SAN ANTONIO    CLOUDY    64  53  67 N3        30.11R
$$

...LAREDO AREA OBSERVATIONS...

CITY           SKY/WX    TMP DP  RH WIND       PRES   REMARKS
LAREDO         CLOUDY    66  58  75 CALM      30.08R
COTULLA        CLOUDY    65  56  72 E3        30.08S
DEL RIO        CLOUDY    65  55  70 E8        30.08R
MCALLEN        PTCLDY    72  61  68 N6        30.05R
HEBBRONVILLE   PTCLDY    64  59  83 CALM      30.08S
$$

...OTHER TEXAS OBSERVATIONS...

CITY           SKY/WX    TMP DP  RH WIND       PRES   REMARKS
BROWNSVILLE    CLOUDY    70  67  90 N3        30.03R
HOUSTON        MOCLDY    63  59  87 N3        30.09R
COL. STATION   PTCLDY    61  57  87 CALM      30.10R
AUSTIN         CLOUDY    57  56  96 CALM      30.11R
WACO           CLOUDY    58  56  93 W3        30.11R
FORT WORTH     MOCLDY    63  54  72 CALM      30.10R
WICHITA FALLS  PTCLDY    60  54  80 SE3       30.10S
LUBBOCK        PTCLDY    58  53  84 S9        30.11S
EL PASO        PTCLDY    63  58  83 S5        30.14R
$$

...MARINE OBSERVATIONS...

STATION/POSITION TIME  SKY/WX   TEMP    WIND        PRES    VSBY  WAVE   SWELL
                                AIR SEA DIR/SP/G                  HT/PER HT/PER
                 (UTC)          (F)     (DEG/KT/KT) (MB)    (MI)  (FT/S) (FT/S)
PORT ARANSAS     1200            73 82  350/  7/  9 1017.4R
BUOY 90 E PORT A 1250            79 85   60/  4/  6 1017.4R         2/ 5   2/ 5
BUOY 45 SE BAFFI 1250            79 83   80/  6/  8 1016.7R         2/ 6   2/ 6
BUOY 200 E PT IS 1250            82 86   70/  6/  8 1015.2R         2/ 5   2/ 5
BUOY 15 E GALVES 1250            78 84   70/  6/ 10 1017.9R         2/ 4
$$



USA.gov is the U.S. government's official web portal to all federal, state and local government web resources and services.